Stations météo

Publicité
Le Touquet, France (7003): Température de l'air & dewpoint: 20.05.2019 18:00:00 - 26.05.2019 18:00:00 (CEST)Le Touquet, France (7003): Température de l'air 5cm: 20.05.2019 18:00:00 - 26.05.2019 18:00:00 (CEST)Le Touquet, France (7003): Vitesse du vent & gusts: 20.05.2019 18:00:00 - 26.05.2019 18:00:00 (CEST)Le Touquet, France (7003): Direction du vent: 20.05.2019 18:00:00 - 26.05.2019 18:00:00 (CEST)Le Touquet, France (7003): reduced air pressure: 20.05.2019 18:00:00 - 26.05.2019 18:00:00 (CEST)Le Touquet, France (7003): visibility: 20.05.2019 18:00:00 - 26.05.2019 18:00:00 (CEST)Le Touquet, France (7003): Ensoleillement: 20.05.2019 18:00:00 - 26.05.2019 18:00:00 (CEST)Le Touquet, France (7003): Quantités de précipitations: 20.05.2019 18:00:00 - 26.05.2019 18:00:00 (CEST)
Date & Time tt [°C] td [°C] tt 5cm [°C] ff [km/h] ff [knt] fx [km/h] fx [knt] dd ppp [hPa] vv [km] sd [min] rr [mm]
26.05.2019 18:00:00 14,5 12,5 14,8 21 12 47 25 W 1014,8 20 0 0,0
26.05.2019 17:00:00 14,2 12,4 15,3 22 12 44 24 WSW 1015,3 18 0 0,0
26.05.2019 16:00:00 14,6 11,7 17,1 22 12 50 27 WSW 1015,9 20 17 0,0
26.05.2019 15:00:00 16,0 12,2 17,4 24 13 46 25 W 1016,1 20 33 0,0
26.05.2019 14:00:00 15,1 12,2 16,9 21 12 44 24 WSW 1016,5 36 4 0,0
26.05.2019 13:00:00 16,3 13,2 15,5 16 9 35 19 W 1016,8 13 16 0,0
26.05.2019 12:00:00 14,3 12,8 15,8 18 10 39 21 WSW 1017,0 11 0 0,0
26.05.2019 11:00:00 14,7 12,7 15,7 16 8 38 20 WSW 1017,0 10 0 0,0
26.05.2019 10:00:00 14,3 12,7 14,3 20 11 41 22 WSW 1017,1 11 9 0,0
26.05.2019 09:00:00 13,4 12,5 13,2 20 11 41 22 WSW 1017,2 9 1 0,0
26.05.2019 08:00:00 12,5 12,2 12,5 21 11 41 22 WSW 1017,0 3,4 0 0,0
26.05.2019 07:00:00 12,2 11,9 12,5 18 10 32 17 WSW 1017,0 5 0 0,0
26.05.2019 06:00:00 12,5 12,2 12,8 13 7 32 17 WSW 1017,2 2,2 0 0,0
26.05.2019 05:00:00 13,3 12,5 13,0 10 6 31 17 SW 1017,4 8 0 0,0
26.05.2019 04:00:00 13,4 12,5 13,1 8 4 24 13 SW 1017,5 8 0 0,0
26.05.2019 03:00:00 13,6 12,5 13,0 8 4 31 17 SW 1018,1 9 0 0,0
26.05.2019 02:00:00 13,5 12,4 12,3 10 5 23 12 SW 1018,4 9 0 0,0
26.05.2019 01:00:00 13,3 12,0 10,8 7 4 18 10 SW 1018,7 14 0 0,0
26.05.2019 00:00:00 12,7 11,4 8,9 6 3 16 8 SSW 1019,2 15 0 0,0
25.05.2019 23:00:00 12,5 10,9 9,3 5 3 11 6 S 1019,3 15 0 0,0
25.05.2019 22:00:00 12,9 11,1 10,9 4 2 14 8 SSW 1019,2 17 11 0,0
25.05.2019 21:00:00 14,3 11,8 15,0 10 6 21 12 W 1018,9 14 60 0,0
25.05.2019 20:00:00 15,4 12,2 16,8 13 7 29 16 WSW 1019,0 14 55 0,0
25.05.2019 19:00:00 16,7 11,2 18,3 16 8 32 17 WSW 1019,1 31 60 0,0
25.05.2019 18:00:00 17,3 10,9 19,3 18 10 33 18 W 1019,1 20 46 0,0
25.05.2019 17:00:00 17,0 10,6 19,2 14 8 30 16 W 1019,3 52 28 0,0
25.05.2019 16:00:00 16,3 10,8 18,9 12 7 20 11 W 1019,3 20 1 0,0
25.05.2019 15:00:00 16,8 10,6 19,9 12 6 21 11 WNW 1019,7 22 21 0,0
25.05.2019 14:00:00 17,2 11,2 18,3 10 5 28 15 NNW 1019,8 28 1 0,0
25.05.2019 13:00:00 18,3 11,6 19,7 16 8 34 18 NW 1019,8 20 55 0,0
25.05.2019 12:00:00 16,5 11,0 17,7 17 9 35 19 NNW 1019,8 46 4 0,0
25.05.2019 11:00:00 16,0 11,4 16,4 19 11 29 15 NNW 1019,6 58 0 0,0
25.05.2019 10:00:00 15,5 12,1 14,8 13 7 21 11 NNW 1019,3 60 0 0,0
25.05.2019 09:00:00 14,4 12,1 13,0 11 6 19 11 NNW 1018,9 36 0 0,0
25.05.2019 08:00:00 12,5 12,0 11,5 0 0 5 3 N 1018,5 6 0 0,0
25.05.2019 07:00:00 11,4 10,9 10,3 3 2 7 4 SE 1018,2 4,0 0 0,0
25.05.2019 06:00:00 11,7 11,2 8,6 3 2 7 4 S 1017,8 4,5 0 0,0
25.05.2019 05:00:00 11,3 10,5 8,4 3 2 6 4 S 1017,8 6 0 0,0
25.05.2019 04:00:00 11,6 10,8 7,9 2 1 5 3 S 1017,8 9 0 0,0
25.05.2019 03:00:00 11,8 10,2 8,3 0 0 7 4 N 1017,9 9 0 0,0
25.05.2019 02:00:00 13,5 11,4 11,9 4 2 14 8 SW 1017,8 16 0 0,0
25.05.2019 01:00:00 13,9 11,4 12,2 6 3 13 7 WSW 1018,2 19 0 0,0
25.05.2019 00:00:00 14,4 10,8 11,7 4 2 14 8 W 1018,2 31 0 0,0
24.05.2019 23:00:00 14,4 9,6 11,7 3 2 10 6 W 1018,1 36 0 0,0
24.05.2019 22:00:00 13,8 9,4 12,7 6 3 19 11 NNW 1018,0 27 0 0,0
24.05.2019 21:00:00 14,6 10,2 14,3 11 6 26 14 NNW 1017,8 25 0 0,0
24.05.2019 20:00:00 15,0 10,6 15,6 16 9 28 15 NNW 1017,7 15 15 0,0
24.05.2019 19:00:00 16,6 10,9 18,5 18 10 35 19 NW 1017,4 6 60 0,0
24.05.2019 18:00:00 17,6 10,5 19,5 21 12 36 20 NNW 1017,3 6 60 0,0
24.05.2019 17:00:00 20,6 8,6 22,4 20 11 36 20 NW 1017,2 6 60 0,0
24.05.2019 16:00:00 20,6 7,9 22,4 26 14 42 23 NNW 1017,3 7 60 0,0
24.05.2019 15:00:00 20,7 9,6 23,5 23 13 39 21 NW 1017,2 8 60 0,0
24.05.2019 14:00:00 20,6 11,8 25,6 21 11 35 19 NNW 1017,2 9 60 0,0
24.05.2019 13:00:00 18,6 12,3 24,0 19 10 32 18 NW 1017,4 10 60 0,0
24.05.2019 12:00:00 16,5 12,1 19,7 11 6 22 12 NW 1017,5 8 60 0,0
24.05.2019 11:00:00 15,6 12,2 17,2 11 6 20 11 NNW 1017,1 7 60 0,0
24.05.2019 10:00:00 15,0 11,9 14,7 9 5 16 9 NW 1017,0 8 30 0,0
24.05.2019 09:00:00 14,0 11,7 12,9 5 3 13 7 W 1016,8 12 21 0,0
24.05.2019 08:00:00 12,8 11,5 12,2 9 5 17 9 WNW 1016,7 10 0 0,0
24.05.2019 07:00:00 12,4 11,5 11,3 6 3 19 10 W 1016,4 8 0 0,0
24.05.2019 06:00:00 12,0 11,1 7,0 7 4 20 11 W 1016,4 9 0 0,0
24.05.2019 05:00:00 10,8 9,9 7,2 2 1 14 8 W 1016,3 5 0 0,0
24.05.2019 04:00:00 11,4 10,6 8,0 6 3 13 7 W 1016,4 6 0 0,0
24.05.2019 03:00:00 11,4 9,8 8,7 5 3 13 7 W 1016,4 10 0 0,0
24.05.2019 02:00:00 12,2 9,8 10,4 8 4 21 11 WSW 1016,7 33 0 0,0
24.05.2019 01:00:00 12,9 10,4 11,1 6 3 16 9 WSW 1016,9 19 0 0,0
24.05.2019 00:00:00 12,9 11,0 10,5 3 2 8 4 SW 1017,1 11 0 0,0
23.05.2019 23:00:00 13,4 10,7 10,9 4 2 12 6 W 1017,1 10 0 0,0
23.05.2019 22:00:00 14,6 11,2 13,0 6 3 13 7 WSW 1017,0 9 7 0,0
23.05.2019 21:00:00 15,4 10,6 14,5 5 3 12 7 NW 1016,6 15 0 0,0
23.05.2019 20:00:00 17,3 10,2 16,7 8 4 16 9 NNW 1016,5 25 29 0,0
23.05.2019 19:00:00 18,0 11,3 18,3 9 5 23 13 N 1016,6 20 48 0,0
23.05.2019 18:00:00 18,4 9,7 19,4 11 6 27 15 NW 1016,9 32 23 0,0
23.05.2019 17:00:00 20,4 9,9 20,9 16 9 29 16 NW 1017,2 38 41 0,0
23.05.2019 16:00:00 20,6 7,2 21,0 14 8 35 19 WSW 1017,2 38 25 0,0
23.05.2019 15:00:00 22,2 8,3 24,8 17 9 37 20 WSW 1017,4 12 60 0,0
23.05.2019 14:00:00 21,9 8,7 23,5 18 10 38 20 WSW 1017,6 17 54 0,0
23.05.2019 13:00:00 21,1 7,3 22,7 21 11 39 21 WSW 1018,1 23 49 0,0
23.05.2019 12:00:00 19,7 9,0 22,2 13 7 26 14 SW 1018,5 24 44 0,0
23.05.2019 11:00:00 19,1 11,1 19,3 7 4 15 8 SE 1018,7 60 51 0,0
23.05.2019 10:00:00 16,6 9,8 15,3 5 3 14 8 SSE 1018,8 24 52 0,0
23.05.2019 09:00:00 12,9 10,3 11,9 9 5 13 7 SE 1018,9 7 60 0,0
23.05.2019 08:00:00 9,2 8,4 6,7 8 4 12 6 SSE 1019,1 4,9 60 0,0
23.05.2019 07:00:00 5,6 5,3 3,5 7 4 11 6 SSE 1018,8 3,4 27 0,0
23.05.2019 06:00:00 5,4 5,1 2,9 5 3 10 6 S 1018,9 3,1 0 0,0
23.05.2019 05:00:00 5,4 5,0 3,4 4 2 9 5 S 1019,0 2,4 0 0,0
23.05.2019 04:00:00 7,0 6,7 4,0 7 4 10 5 SSE 1019,4 2,4 0 0,0
23.05.2019 03:00:00 7,5 7,2 4,4 7 4 11 6 SSE 1019,5 1,7 0 0,0
23.05.2019 02:00:00 8,4 8,0 3,8 5 3 9 5 S 1019,8 1,9 0 0,0
23.05.2019 01:00:00 9,0 8,5 4,1 4 2 9 5 S 1020,1 0,8 0 0,0
23.05.2019 00:00:00 9,9 9,4 4,4 6 3 8 4 SSE 1020,1 2,9 0 0,0
22.05.2019 23:00:00 10,7 9,9 5,7 4 2 6 3 SE 1020,4 1,1 0 0,0
22.05.2019 22:00:00 11,9 10,3 8,6 2 1 7 4 S 1020,3 7 8 0,0
22.05.2019 21:00:00 13,7 11,4 12,5 5 3 15 8 W 1020,3 16 45 0,0
22.05.2019 20:00:00 15,6 11,0 16,0 7 4 14 7 WSW 1020,3 19 60 0,0
22.05.2019 19:00:00 16,8 11,5 18,5 8 4 16 9 W 1020,3 23 60 0,0
22.05.2019 18:00:00 16,8 11,3 19,3 8 4 23 12 WSW 1020,5 20 46 0,0
22.05.2019 17:00:00 16,3 11,2 19,8 9 5 17 9 WSW 1020,8 29 0 0,0
22.05.2019 16:00:00 16,8 11,5 20,7 10 5 19 10 W 1020,9 30 19 0,0
22.05.2019 15:00:00 17,4 12,3 21,5 10 5 22 12 W 1021,1 20 44 0,0
22.05.2019 14:00:00 16,4 12,6 20,8 11 6 25 13 WSW 1021,2 19 45 0,0
22.05.2019 13:00:00 15,9 12,5 20,7 11 6 24 13 W 1021,3 52 22 0,0
22.05.2019 12:00:00 16,8 12,5 20,0 5 3 18 10 SSW 1021,1 20 25 0,0
22.05.2019 11:00:00 15,4 11,6 15,7 5 3 14 7 S 1020,8 16 21 0,0
22.05.2019 10:00:00 13,1 11,5 14,2 4 2 9 5 SE 1020,8 7 5 0,0
22.05.2019 09:00:00 11,6 10,7 11,1 6 3 13 7 SSE 1020,7 4,2 36 0,0
22.05.2019 08:00:00 9,8 9,5 8,7 5 3 10 5 SSE 1020,3 3,2 41 0,0
22.05.2019 07:00:00 7,8 7,5 6,6 6 4 13 7 SSE 1020,2 2,9 31 0,0
22.05.2019 06:00:00 7,2 6,8 4,5 9 5 14 7 SSE 1020,2 2,0 0 0,0
22.05.2019 05:00:00 7,6 7,2 4,5 5 3 11 6 S 1020,2 2,3 0 0,0
22.05.2019 04:00:00 7,8 7,4 4,5 5 3 10 6 S 1020,2 2,7 0 0,0
22.05.2019 03:00:00 8,2 7,4 5,0 6 3 10 6 SSE 1020,2 3,5 0 0,0
22.05.2019 02:00:00 8,7 7,8 4,8 5 3 10 6 S 1020,0 6 0 0,0
22.05.2019 01:00:00 9,1 7,9 4,9 4 2 7 4 SSE 1020,1 7 0 0,0
22.05.2019 00:00:00 9,6 8,0 6,1 4 2 6 3 SSE 1019,9 13 0 0,0
21.05.2019 23:00:00 11,4 8,8 7,3 3 2 10 5 SSW 1019,9 15 0 0,0
21.05.2019 22:00:00 11,8 8,8 9,6 7 4 11 6 SE 1019,8 20 7 0,0
21.05.2019 21:00:00 14,2 9,2 13,2 7 4 18 10 NNW 1019,6 20 60 0,0
21.05.2019 20:00:00 15,6 10,6 15,7 9 5 20 11 NNW 1019,3 13 60 0,0
21.05.2019 19:00:00 16,8 9,7 17,9 8 5 24 13 WNW 1019,0 22 60 0,0
21.05.2019 18:00:00 17,1 10,5 19,6 10 6 26 14 W 1018,9 11 60 0,0
21.05.2019 17:00:00 17,4 11,2 21,3 14 8 27 14 W 1018,7 11 60 0,0
21.05.2019 16:00:00 18,1 10,9 21,7 13 7 25 14 WNW 1018,7 10 60 0,0
21.05.2019 15:00:00 18,1 11,4 21,5 14 8 27 14 NNW 1018,6 11 60 0,0
21.05.2019 14:00:00 17,5 11,3 22,4 19 10 36 19 NNW 1018,4 8 60 0,0
21.05.2019 13:00:00 17,3 10,9 23,3 24 13 41 22 NNW 1018,2 8 60 0,0
21.05.2019 12:00:00 17,5 12,2 22,3 22 12 32 17 NNW 1017,8 - 58 0,0
21.05.2019 11:00:00 17,4 12,7 17,4 11 6 26 14 NW 1017,6 10 60 0,0
21.05.2019 10:00:00 16,0 11,6 15,4 13 7 26 14 NNE 1017,3 7 60 0,0
21.05.2019 09:00:00 12,8 12,8 11,0 0 0 8 4 N 1017,0 2,8 49 0,0
21.05.2019 08:00:00 9,0 9,0 8,7 4 2 10 5 SSE 1016,6 0,9 27 0,0
21.05.2019 07:00:00 7,7 7,7 8,7 5 3 9 5 SSE 1016,1 0,1 0 0,2
21.05.2019 06:00:00 8,3 8,3 9,1 5 3 9 5 SSE 1015,8 0,1 0 0,0
21.05.2019 05:00:00 9,1 9,0 7,7 4 2 8 4 S 1015,6 0,1 0 0,0
21.05.2019 04:00:00 8,4 8,3 4,8 6 3 10 5 SE 1015,6 1,1 0 0,0
21.05.2019 03:00:00 8,2 7,9 5,1 3 2 9 5 S 1015,3 1,0 0 0,0
21.05.2019 02:00:00 8,7 8,2 5,5 3 2 8 4 SSE 1015,3 1,5 0 0,0
21.05.2019 01:00:00 9,2 8,7 6,0 4 2 6 4 SSE 1015,4 1,7 0 0,0
21.05.2019 00:00:00 9,9 9,4 6,7 3 2 6 4 S 1015,4 3,4 0 0,0
20.05.2019 23:00:00 10,7 9,6 7,3 0 0 4 2 N 1015,1 3,3 0 0,0
20.05.2019 22:00:00 12,4 10,1 9,9 3 2 14 8 NW 1014,5 6 5 0,0
20.05.2019 21:00:00 13,6 9,6 12,6 7 4 24 13 NNW 1014,2 9 58 0,0
20.05.2019 20:00:00 15,1 10,3 15,6 13 7 29 15 NW 1013,8 8 60 0,0
20.05.2019 19:00:00 15,3 10,9 15,9 18 10 29 16 NW 1013,5 7 17 0,0
20.05.2019 18:00:00 14,9 10,9 17,8 15 8 31 17 NW 1013,6 7 22 0,0

tt = Température de l'air
td = dewpoint
tt 5cm = Température de l'air 5cm
ff = Vitesse du vent
fx = gusts
dd = Direction du vent
ppp = reduced air pressure
vv = visibility
sd = Ensoleillement
rr = Quantités de précipitations

stations d'obs. à proximité